QPF
0.26 0.27 0.25 0.25 0.24 0.26 0.26 0.26 0.24 0.20 0.16 0.10 0.08 0.07 0.05 0.05 0.08 0.09 0.10 0.10 0.07 0.08 0.09 0.09 0.08 0.08 0.07 0.05 0.04 0.04 0.04 0.03 0.03 0.02 0.02 0.03 0.02 0.02 0.01 0.02 0.02 0.02 0.01
0.33 0.32 0.30 0.29 0.24 0.24 0.25 0.28 0.29 0.25 0.20 0.12 0.07 0.05 0.04 0.03 0.08 0.11 0.14 0.15 0.12 0.09 0.09 0.10 0.11 0.10 0.08 0.07 0.06 0.06 0.05 0.05 0.05 0.03 0.03 0.02 0.02 0.02 0.01 0.01 0.01 0.01 0.01
0.28 0.27 0.26 0.26 0.23 0.23 0.27 0.27 0.30 0.23 0.17 0.12 0.08 0.06 0.06 0.06 0.07 0.10 0.16 0.19 0.21 0.15 0.10 0.09 0.10 0.11 0.12 0.11 0.08 0.07 0.07 0.05 0.04 0.03 0.03 0.03 0.02 0.02 0.01 0.01 0.01 0.01 0.01
0.16 0.16 0.17 0.20 0.20 0.24 0.30 0.29 0.26 0.22 0.19 0.17 0.13 0.09 0.08 0.09 0.09 0.11 0.13 0.20 0.27 0.25 0.16 0.11 0.10 0.11 0.12 0.12 0.10 0.09 0.08 0.05 0.04 0.03 0.03 0.03 0.03 0.02 0.02 0.02 0.01 0.01 0.01
0.10 0.12 0.13 0.16 0.20 0.22 0.23 0.23 0.26 0.24 0.23 0.21 0.17 0.14 0.13 0.13 0.14 0.14 0.16 0.20 0.26 0.27 0.22 0.17 0.14 0.15 0.14 0.14 0.12 0.11 0.09 0.07 0.05 0.04 0.03 0.02 0.02 0.02 0.02 0.02 0.02 0.02 0.02
0.06 0.09 0.11 0.12 0.17 0.20 0.20 0.21 0.25 0.22 0.19 0.21 0.16 0.15 0.15 0.15 0.16 0.17 0.19 0.22 0.26 0.27 0.27 0.22 0.19 0.19 0.19 0.15 0.11 0.11 0.11 0.09 0.07 0.06 0.05 0.03 0.03 0.02 0.02 0.02 0.01 0.02 0.02
0.06 0.09 0.12 0.15 0.17 0.16 0.17 0.18 0.21 0.23 0.21 0.20 0.18 0.15 0.13 0.12 0.12 0.14 0.18 0.19 0.22 0.23 0.26 0.26 0.24 0.22 0.21 0.17 0.14 0.14 0.14 0.12 0.11 0.10 0.08 0.06 0.03 0.02 0.02 0.02 0.02 0.02 0.02
0.06 0.06 0.08 0.11 0.11 0.12 0.14 0.16 0.20 0.22 0.20 0.19 0.17 0.17 0.13 0.11 0.09 0.09 0.12 0.13 0.16 0.21 0.24 0.22 0.21 0.19 0.17 0.17 0.17 0.16 0.15 0.16 0.17 0.14 0.11 0.07 0.04 0.03 0.03 0.03 0.03 0.03 0.02
0.05 0.05 0.06 0.10 0.11 0.11 0.11 0.14 0.18 0.21 0.22 0.22 0.22 0.21 0.18 0.15 0.12 0.11 0.12 0.13 0.14 0.18 0.24 0.23 0.19 0.16 0.15 0.15 0.15 0.14 0.14 0.14 0.16 0.17 0.14 0.11 0.09 0.07 0.06 0.05 0.04 0.03 0.03
0.03 0.03 0.05 0.07 0.11 0.14 0.12 0.11 0.15 0.18 0.20 0.20 0.21 0.19 0.19 0.18 0.16 0.14 0.15 0.18 0.17 0.16 0.18 0.20 0.21 0.20 0.18 0.18 0.17 0.16 0.14 0.12 0.12 0.12 0.11 0.09 0.08 0.07 0.07 0.07 0.06 0.04 0.04
0.04 0.03 0.03 0.04 0.06 0.10 0.11 0.10 0.11 0.13 0.16 0.17 0.18 0.20 0.19 0.18 0.14 0.13 0.14 0.17 0.19 0.20 0.20 0.18 0.17 0.17 0.17 0.17 0.14 0.15 0.15 0.13 0.13 0.15 0.14 0.12 0.09 0.07 0.06 0.06 0.07 0.08 0.08
0.04 0.04 0.03 0.03 0.04 0.06 0.08 0.08 0.08 0.10 0.12 0.15 0.19 0.19 0.18 0.16 0.14 0.15 0.15 0.16 0.19 0.22 0.22 0.20 0.18 0.16 0.14 0.13 0.13 0.15 0.14 0.14 0.14 0.16 0.17 0.17 0.15 0.12 0.09 0.08 0.08 0.10 0.12
0.04 0.04 0.04 0.05 0.06 0.07 0.09 0.09 0.08 0.09 0.11 0.14 0.17 0.19 0.20 0.19 0.17 0.17 0.18 0.19 0.19 0.20 0.22 0.23 0.22 0.19 0.16 0.14 0.14 0.14 0.12 0.12 0.11 0.10 0.09 0.08 0.08 0.08 0.07 0.08 0.09 0.10 0.12
0.04 0.04 0.05 0.05 0.05 0.05 0.08 0.12 0.13 0.11 0.10 0.11 0.13 0.15 0.18 0.19 0.20 0.20 0.20 0.21 0.23 0.22 0.21 0.21 0.22 0.20 0.19 0.17 0.16 0.14 0.11 0.11 0.09 0.08 0.06 0.06 0.06 0.06 0.07 0.07 0.08 0.08 0.08
0.04 0.04 0.05 0.06 0.07 0.06 0.05 0.09 0.12 0.12 0.12 0.11 0.10 0.10 0.14 0.16 0.16 0.18 0.19 0.21 0.22 0.23 0.24 0.22 0.21 0.21 0.18 0.16 0.15 0.10 0.07 0.08 0.07 0.07 0.07 0.07 0.07 0.07 0.07 0.07 0.06 0.05 0.04
0.03 0.04 0.05 0.06 0.09 0.10 0.08 0.07 0.09 0.09 0.09 0.10 0.10 0.09 0.10 0.12 0.13 0.14 0.15 0.16 0.16 0.17 0.19 0.20 0.18 0.18 0.16 0.13 0.11 0.07 0.06 0.07 0.05 0.05 0.05 0.04 0.04 0.04 0.04 0.04 0.03 0.03 0.02
0.02 0.03 0.04 0.04 0.06 0.09 0.10 0.08 0.07 0.06 0.06 0.07 0.09 0.10 0.10 0.10 0.10 0.11 0.12 0.12 0.14 0.14 0.18 0.21 0.18 0.15 0.13 0.11 0.09 0.06 0.05 0.04 0.03 0.03 0.03 0.03 0.02 0.02 0.02 0.02 0.01 0.01 0.01
0.03 0.03 0.03 0.03 0.03 0.05 0.06 0.08 0.08 0.06 0.05 0.06 0.07 0.07 0.08 0.09 0.09 0.08 0.09 0.10 0.13 0.14 0.16 0.18 0.17 0.14 0.11 0.08 0.06 0.05 0.03 0.02 0.02 0.03 0.02 0.02 0.01 0.01 0.01 0.00 0.00 0.00 0.00
0.03 0.03 0.02 0.03 0.03 0.03 0.02 0.04 0.05 0.05 0.05 0.05 0.05 0.06 0.07 0.08 0.09 0.09 0.08 0.09 0.12 0.15 0.16 0.16 0.15 0.13 0.11 0.07 0.05 0.05 0.04 0.04 0.03 0.02 0.02 0.01 0.00 0.00 0.00 0.00 0.00 0.00 0.00
0.02 0.02 0.02 0.02 0.02 0.02 0.01 0.02 0.02 0.04 0.05 0.06 0.06 0.07 0.09 0.10 0.10 0.09 0.09 0.10 0.10 0.12 0.14 0.15 0.14 0.12 0.10 0.08 0.07 0.07 0.06 0.05 0.03 0.02 0.01 0.01 0.00 0.00 0.00 0.00 0.00 0.00 0.00
0.03 0.02 0.02 0.02 0.02 0.02 0.02 0.02 0.03 0.03 0.04 0.05 0.05 0.05 0.07 0.08 0.09 0.08 0.07 0.07 0.08 0.09 0.10 0.10 0.09 0.09 0.08 0.08 0.07 0.06 0.06 0.05 0.03 0.02 0.01 0.01 0.00 0.00 0.00 0.00 0.00 0.00 0.00
0.04 0.03 0.02 0.02 0.02 0.02 0.02 0.03 0.04 0.05 0.05 0.05 0.05 0.05 0.04 0.05 0.05 0.04 0.04 0.04 0.05 0.06 0.06 0.06 0.06 0.07 0.07 0.06 0.05 0.05 0.05 0.05 0.05 0.03 0.02 0.01 0.01 0.01 0.01 0.01 0.00 0.00 0.00
0.05 0.04 0.04 0.04 0.02 0.02 0.02 0.02 0.03 0.05 0.05 0.05 0.05 0.04 0.03 0.03 0.03 0.03 0.02 0.02 0.02 0.02 0.03 0.04 0.05 0.05 0.05 0.05 0.04 0.04 0.04 0.04 0.05 0.04 0.03 0.03 0.01 0.01 0.01 0.00 0.00 0.00 0.00
0.06 0.06 0.06 0.04 0.02 0.02 0.02 0.01 0.02 0.03 0.03 0.03 0.03 0.03 0.03 0.02 0.01 0.02 0.02 0.02 0.01 0.01 0.01 0.02 0.03 0.03 0.03 0.03 0.04 0.04 0.04 0.04 0.04 0.03 0.03 0.04 0.02 0.02 0.01 0.01 0.01 0.00 0.00
0.06 0.06 0.05 0.04 0.02 0.01 0.01 0.01 0.01 0.02 0.02 0.01 0.01 0.01 0.01 0.01 0.00 0.01 0.03 0.03 0.01 0.01 0.00 0.00 0.01 0.01 0.01 0.01 0.02 0.04 0.05 0.05 0.06 0.05 0.03 0.04 0.03 0.03 0.02 0.02 0.01 0.00 0.00
0.05 0.05 0.04 0.03 0.02 0.01 0.00 0.00 0.01 0.02 0.01 0.01 0.00 0.00 0.00 0.00 0.00 0.01 0.03 0.04 0.03 0.02 0.01 0.01 0.01 0.01 0.00 0.01 0.01 0.03 0.05 0.06 0.07 0.08 0.05 0.05 0.05 0.04 0.04 0.02 0.01 0.01 0.00
MSLP
1015.64 1015.77 1015.80 1015.78 1015.78 1015.82 1015.94 1016.09 1016.27 1016.41 1016.50 1016.51 1016.47 1016.39 1016.33 1016.32 1016.41 1016.61 1016.91 1017.29 1017.71 1018.15 1018.57 1018.97 1019.34 1019.69 1020.03 1020.37 1020.70 1021.01 1021.31 1021.57 1021.81 1022.02 1022.22 1022.40 1022.59 1022.78 1022.97 1023.16 1023.33 1023.48 1023.60
1015.67 1015.82 1015.87 1015.86 1015.85 1015.87 1015.95 1016.08 1016.22 1016.36 1016.47 1016.52 1016.52 1016.49 1016.46 1016.46 1016.52 1016.66 1016.87 1017.16 1017.51 1017.89 1018.29 1018.70 1019.11 1019.52 1019.93 1020.34 1020.73 1021.10 1021.44 1021.75 1022.03 1022.28 1022.51 1022.74 1022.96 1023.18 1023.40 1023.59 1023.77 1023.92 1024.05
1015.64 1015.81 1015.88 1015.90 1015.91 1015.94 1016.02 1016.14 1016.29 1016.45 1016.59 1016.69 1016.75 1016.77 1016.77 1016.78 1016.80 1016.87 1016.99 1017.17 1017.41 1017.71 1018.06 1018.45 1018.88 1019.34 1019.82 1020.29 1020.75 1021.19 1021.59 1021.96 1022.29 1022.59 1022.87 1023.14 1023.40 1023.65 1023.87 1024.08 1024.26 1024.41 1024.53
1015.49 1015.66 1015.77 1015.83 1015.89 1015.96 1016.07 1016.21 1016.39 1016.58 1016.77 1016.94 1017.07 1017.15 1017.20 1017.21 1017.21 1017.21 1017.23 1017.30 1017.43 1017.63 1017.91 1018.27 1018.70 1019.18 1019.71 1020.24 1020.77 1021.27 1021.74 1022.17 1022.56 1022.91 1023.25 1023.56 1023.85 1024.12 1024.35 1024.56 1024.73 1024.87 1024.99
1015.18 1015.36 1015.51 1015.63 1015.75 1015.88 1016.04 1016.23 1016.44 1016.68 1016.93 1017.17 1017.37 1017.53 1017.63 1017.67 1017.67 1017.62 1017.56 1017.53 1017.56 1017.66 1017.86 1018.17 1018.58 1019.07 1019.62 1020.20 1020.78 1021.34 1021.86 1022.35 1022.79 1023.20 1023.58 1023.93 1024.25 1024.54 1024.78 1024.99 1025.15 1025.28 1025.38
1014.74 1014.93 1015.11 1015.30 1015.49 1015.69 1015.90 1016.14 1016.40 1016.69 1016.99 1017.30 1017.58 1017.82 1017.98 1018.07 1018.08 1018.02 1017.92 1017.83 1017.77 1017.79 1017.92 1018.17 1018.55 1019.03 1019.59 1020.19 1020.80 1021.40 1021.96 1022.48 1022.96 1023.41 1023.83 1024.21 1024.55 1024.86 1025.12 1025.32 1025.48 1025.60 1025.69
1014.25 1014.43 1014.66 1014.90 1015.16 1015.42 1015.68 1015.95 1016.24 1016.56 1016.91 1017.27 1017.62 1017.93 1018.18 1018.33 1018.39 1018.35 1018.25 1018.12 1018.02 1018.00 1018.08 1018.29 1018.63 1019.10 1019.65 1020.25 1020.87 1021.47 1022.05 1022.58 1023.08 1023.55 1023.98 1024.39 1024.75 1025.08 1025.35 1025.56 1025.72 1025.83 1025.92
1013.82 1013.99 1014.24 1014.53 1014.83 1015.12 1015.41 1015.69 1015.99 1016.32 1016.69 1017.08 1017.48 1017.86 1018.18 1018.41 1018.54 1018.56 1018.49 1018.39 1018.30 1018.26 1018.33 1018.52 1018.85 1019.30 1019.83 1020.41 1021.01 1021.60 1022.16 1022.68 1023.17 1023.63 1024.07 1024.48 1024.86 1025.20 1025.48 1025.71 1025.88 1026.00 1026.09
1013.55 1013.70 1013.96 1014.26 1014.57 1014.87 1015.15 1015.42 1015.70 1016.01 1016.36 1016.76 1017.19 1017.61 1018.00 1018.31 1018.52 1018.62 1018.63 1018.60 1018.56 1018.57 1018.66 1018.87 1019.20 1019.64 1020.16 1020.71 1021.28 1021.82 1022.34 1022.82 1023.27 1023.70 1024.12 1024.52 1024.91 1025.26 1025.56 1025.82 1026.01 1026.15 1026.26
1013.53 1013.65 1013.88 1014.17 1014.46 1014.73 1014.97 1015.19 1015.42 1015.67 1015.99 1016.37 1016.79 1017.24 1017.68 1018.06 1018.36 1018.56 1018.67 1018.74 1018.80 1018.89 1019.06 1019.32 1019.68 1020.13 1020.64 1021.17 1021.68 1022.17 1022.62 1023.03 1023.42 1023.80 1024.18 1024.56 1024.94 1025.31 1025.64 1025.92 1026.15 1026.32 1026.44
1013.77 1013.85 1014.04 1014.27 1014.51 1014.72 1014.89 1015.04 1015.19 1015.38 1015.63 1015.96 1016.37 1016.82 1017.28 1017.72 1018.09 1018.39 1018.63 1018.82 1019.00 1019.21 1019.49 1019.83 1020.26 1020.74 1021.25 1021.75 1022.22 1022.63 1023.00 1023.33 1023.64 1023.96 1024.29 1024.64 1025.01 1025.39 1025.74 1026.06 1026.32 1026.52 1026.67
1014.25 1014.27 1014.39 1014.55 1014.70 1014.83 1014.92 1014.98 1015.05 1015.16 1015.34 1015.62 1015.98 1016.41 1016.87 1017.34 1017.78 1018.18 1018.52 1018.85 1019.17 1019.52 1019.92 1020.38 1020.88 1021.41 1021.93 1022.42 1022.84 1023.19 1023.48 1023.72 1023.94 1024.18 1024.46 1024.78 1025.13 1025.51 1025.88 1026.23 1026.52 1026.75 1026.92
1014.89 1014.84 1014.87 1014.94 1015.00 1015.04 1015.04 1015.02 1015.01 1015.04 1015.16 1015.37 1015.67 1016.07 1016.52 1016.99 1017.47 1017.94 1018.39 1018.84 1019.29 1019.79 1020.32 1020.89 1021.49 1022.07 1022.62 1023.09 1023.48 1023.77 1023.98 1024.14 1024.29 1024.46 1024.68 1024.95 1025.29 1025.67 1026.05 1026.42 1026.73 1026.99 1027.17
1015.61 1015.48 1015.42 1015.39 1015.36 1015.32 1015.24 1015.15 1015.08 1015.06 1015.11 1015.25 1015.50 1015.84 1016.26 1016.72 1017.22 1017.73 1018.25 1018.80 1019.37 1019.99 1020.64 1021.32 1022.00 1022.65 1023.22 1023.69 1024.05 1024.29 1024.45 1024.54 1024.62 1024.73 1024.90 1025.14 1025.46 1025.83 1026.21 1026.59 1026.92 1027.18 1027.36
1016.33 1016.13 1015.99 1015.88 1015.78 1015.66 1015.54 1015.40 1015.29 1015.22 1015.22 1015.31 1015.50 1015.77 1016.14 1016.56 1017.04 1017.56 1018.13 1018.74 1019.40 1020.11 1020.86 1021.62 1022.37 1023.06 1023.65 1024.13 1024.47 1024.68 1024.79 1024.83 1024.87 1024.94 1025.07 1025.29 1025.59 1025.94 1026.33 1026.70 1027.02 1027.28 1027.45
1017.02 1016.77 1016.58 1016.41 1016.25 1016.09 1015.94 1015.78 1015.65 1015.55 1015.51 1015.55 1015.67 1015.88 1016.17 1016.54 1016.97 1017.47 1018.04 1018.68 1019.38 1020.15 1020.95 1021.76 1022.55 1023.26 1023.86 1024.34 1024.66 1024.86 1024.94 1024.97 1024.99 1025.04 1025.16 1025.36 1025.64 1025.98 1026.35 1026.71 1027.02 1027.25 1027.41
1017.68 1017.42 1017.18 1016.99 1016.81 1016.64 1016.48 1016.32 1016.18 1016.07 1016.00 1015.99 1016.04 1016.17 1016.38 1016.67 1017.03 1017.48 1018.02 1018.64 1019.34 1020.11 1020.92 1021.74 1022.52 1023.23 1023.83 1024.29 1024.61 1024.80 1024.88 1024.91 1024.94 1024.99 1025.11 1025.31 1025.58 1025.91 1026.25 1026.59 1026.87 1027.08 1027.21
1018.35 1018.08 1017.85 1017.65 1017.47 1017.31 1017.16 1017.01 1016.88 1016.75 1016.66 1016.60 1016.58 1016.63 1016.75 1016.94 1017.22 1017.60 1018.07 1018.64 1019.30 1020.03 1020.80 1021.58 1022.34 1023.01 1023.58 1024.02 1024.33 1024.52 1024.62 1024.68 1024.72 1024.80 1024.94 1025.14 1025.41 1025.72 1026.04 1026.34 1026.59 1026.76 1026.87
1019.04 1018.79 1018.58 1018.39 1018.23 1018.10 1017.96 1017.83 1017.70 1017.57 1017.44 1017.34 1017.26 1017.22 1017.25 1017.35 1017.54 1017.83 1018.22 1018.71 1019.30 1019.95 1020.66 1021.37 1022.06 1022.67 1023.19 1023.60 1023.90 1024.10 1024.22 1024.31 1024.39 1024.50 1024.67 1024.88 1025.14 1025.43 1025.72 1025.98 1026.19 1026.33 1026.41
1019.75 1019.54 1019.35 1019.19 1019.06 1018.94 1018.83 1018.72 1018.59 1018.45 1018.29 1018.14 1018.01 1017.90 1017.85 1017.87 1017.97 1018.17 1018.48 1018.89 1019.38 1019.95 1020.55 1021.17 1021.77 1022.30 1022.76 1023.13 1023.41 1023.61 1023.76 1023.88 1024.01 1024.15 1024.34 1024.56 1024.81 1025.07 1025.32 1025.54 1025.71 1025.82 1025.88
1020.46 1020.27 1020.11 1019.98 1019.87 1019.78 1019.68 1019.58 1019.45 1019.30 1019.12 1018.94 1018.76 1018.61 1018.50 1018.46 1018.50 1018.63 1018.86 1019.18 1019.59 1020.05 1020.55 1021.06 1021.55 1022.00 1022.39 1022.71 1022.96 1023.16 1023.33 1023.48 1023.63 1023.81 1024.01 1024.23 1024.46 1024.69 1024.89 1025.06 1025.18 1025.26 1025.30
1021.09 1020.93 1020.79 1020.68 1020.59 1020.51 1020.43 1020.33 1020.20 1020.05 1019.87 1019.67 1019.48 1019.30 1019.17 1019.10 1019.10 1019.19 1019.36 1019.61 1019.93 1020.29 1020.69 1021.09 1021.48 1021.83 1022.14 1022.40 1022.63 1022.82 1022.99 1023.16 1023.33 1023.52 1023.72 1023.92 1024.12 1024.31 1024.46 1024.58 1024.65 1024.69 1024.70
1021.61 1021.45 1021.32 1021.22 1021.15 1021.08 1021.00 1020.91 1020.80 1020.65 1020.48 1020.29 1020.11 1019.95 1019.82 1019.75 1019.74 1019.81 1019.95 1020.14 1020.39 1020.67 1020.97 1021.27 1021.56 1021.83 1022.06 1022.27 1022.46 1022.63 1022.79 1022.96 1023.14 1023.32 1023.50 1023.68 1023.83 1023.96 1024.06 1024.11 1024.14 1024.14 1024.13
1021.97 1021.82 1021.69 1021.60 1021.53 1021.46 1021.40 1021.32 1021.22 1021.10 1020.96 1020.81 1020.66 1020.54 1020.44 1020.40 1020.41 1020.48 1020.60 1020.76 1020.95 1021.16 1021.38 1021.60 1021.80 1021.98 1022.15 1022.30 1022.45 1022.60 1022.75 1022.90 1023.06 1023.22 1023.37 1023.50 1023.60 1023.67 1023.71 1023.70 1023.68 1023.64 1023.60
1022.18 1022.03 1021.92 1021.83 1021.77 1021.72 1021.67 1021.61 1021.54 1021.45 1021.35 1021.25 1021.15 1021.08 1021.04 1021.03 1021.07 1021.15 1021.26 1021.39 1021.55 1021.70 1021.85 1021.99 1022.12 1022.24 1022.35 1022.46 1022.57 1022.68 1022.81 1022.94 1023.07 1023.19 1023.30 1023.38 1023.42 1023.43 1023.41 1023.35 1023.28 1023.20 1023.13
1022.30 1022.17 1022.07 1022.01 1021.96 1021.93 1021.90 1021.87 1021.83 1021.77 1021.72 1021.66 1021.62 1021.60 1021.60 1021.63 1021.69 1021.78 1021.88 1021.99 1022.11 1022.21 1022.31 1022.39 1022.46 1022.53 1022.60 1022.67 1022.74 1022.83 1022.93 1023.03 1023.12 1023.20 1023.26 1023.29 1023.28 1023.24 1023.16 1023.06 1022.94 1022.82 1022.73
Thickness
5734 5733 5732 5731 5730 5730 5729 5727 5726 5727 5728 5730 5731 5732 5732 5732 5732 5731 5731 5729 5727 5726 5723 5722 5720 5718 5715 5713 5711 5709 5707 5706 5704 5702 5701 5700 5698 5697 5696 5695 5694 5693 5691
5729 5727 5727 5726 5726 5726 5726 5725 5724 5724 5725 5726 5728 5729 5729 5729 5728 5727 5725 5722 5722 5721 5720 5719 5717 5715 5713 5711 5709 5707 5705 5703 5701 5699 5698 5696 5695 5693 5692 5691 5689 5688 5687
5723 5721 5721 5721 5722 5722 5721 5720 5719 5720 5721 5722 5722 5723 5724 5725 5725 5724 5722 5719 5718 5715 5714 5714 5714 5712 5711 5708 5706 5704 5702 5700 5698 5696 5694 5692 5691 5689 5688 5686 5685 5683 5682
5718 5717 5716 5717 5718 5718 5717 5716 5716 5715 5714 5715 5716 5717 5718 5718 5719 5719 5718 5716 5714 5711 5710 5709 5709 5709 5708 5705 5703 5701 5698 5696 5694 5692 5690 5688 5686 5684 5683 5681 5679 5678 5676
5711 5711 5710 5711 5712 5712 5712 5713 5711 5710 5709 5710 5711 5711 5711 5711 5712 5712 5712 5711 5709 5707 5706 5705 5705 5705 5704 5701 5699 5697 5694 5692 5689 5687 5685 5683 5681 5679 5677 5675 5673 5672 5670
5705 5705 5705 5706 5706 5705 5705 5705 5704 5705 5705 5705 5705 5705 5705 5705 5706 5706 5706 5706 5705 5703 5702 5701 5701 5700 5698 5696 5694 5692 5689 5687 5684 5682 5679 5677 5675 5673 5671 5669 5666 5665 5663
5698 5698 5698 5699 5699 5699 5698 5698 5697 5697 5698 5699 5697 5695 5697 5698 5698 5699 5700 5701 5701 5699 5698 5697 5695 5694 5691 5689 5688 5685 5683 5681 5678 5676 5673 5670 5668 5666 5664 5661 5659 5657 5655
5690 5691 5690 5691 5692 5692 5692 5692 5691 5690 5692 5693 5691 5687 5685 5685 5689 5691 5693 5694 5694 5693 5691 5690 5689 5687 5685 5683 5681 5678 5676 5674 5671 5668 5666 5663 5661 5659 5656 5653 5651 5649 5646
5682 5682 5683 5683 5684 5685 5685 5686 5686 5684 5683 5686 5687 5683 5679 5678 5678 5680 5683 5685 5685 5684 5683 5681 5680 5679 5677 5675 5673 5671 5669 5665 5663 5661 5658 5655 5653 5651 5648 5645 5643 5640 5637
5673 5673 5674 5675 5675 5677 5678 5679 5680 5680 5679 5679 5681 5681 5680 5679 5674 5670 5671 5673 5674 5674 5674 5673 5671 5671 5669 5667 5664 5662 5660 5657 5655 5652 5650 5647 5645 5642 5639 5636 5633 5630 5628
5663 5664 5665 5666 5667 5668 5670 5672 5673 5674 5674 5674 5674 5674 5673 5673 5673 5668 5663 5662 5661 5661 5662 5663 5662 5660 5659 5657 5655 5653 5651 5648 5646 5643 5641 5638 5636 5633 5630 5627 5623 5621 5618
5653 5654 5655 5656 5658 5659 5661 5663 5664 5666 5667 5668 5668 5668 5667 5666 5665 5663 5659 5655 5651 5649 5649 5650 5650 5650 5648 5647 5645 5644 5641 5638 5636 5633 5631 5628 5625 5623 5620 5617 5614 5611 5608
5642 5643 5644 5645 5648 5650 5652 5654 5656 5657 5659 5660 5660 5661 5661 5661 5662 5660 5655 5649 5643 5639 5638 5637 5638 5638 5638 5636 5635 5633 5631 5628 5626 5623 5620 5617 5614 5612 5609 5606 5604 5601 5598
5631 5632 5634 5635 5638 5640 5643 5645 5647 5648 5650 5651 5652 5653 5654 5654 5655 5654 5651 5645 5637 5632 5629 5627 5626 5627 5627 5625 5623 5622 5619 5617 5614 5612 5610 5607 5604 5601 5598 5596 5593 5590 5587
5621 5622 5623 5625 5627 5630 5633 5635 5636 5638 5640 5642 5643 5644 5645 5645 5646 5646 5644 5642 5637 5629 5622 5618 5617 5616 5616 5614 5612 5610 5608 5606 5603 5601 5599 5596 5594 5591 5588 5586 5583 5580 5576
5610 5611 5612 5614 5616 5619 5622 5624 5626 5627 5629 5630 5632 5633 5634 5636 5636 5636 5636 5634 5632 5628 5619 5613 5611 5608 5606 5604 5601 5599 5597 5596 5594 5591 5589 5587 5584 5582 5579 5576 5573 5570 5567
5599 5600 5601 5602 5604 5606 5609 5611 5614 5616 5618 5618 5620 5622 5623 5624 5625 5625 5625 5624 5623 5620 5613 5606 5602 5599 5596 5595 5592 5590 5588 5587 5585 5583 5580 5578 5576 5573 5570 5568 5564 5561 5557
5587 5588 5589 5590 5592 5593 5596 5599 5601 5603 5605 5606 5608 5610 5611 5612 5613 5614 5614 5613 5612 5610 5606 5599 5592 5589 5587 5585 5584 5582 5581 5579 5577 5575 5572 5569 5567 5564 5561 5558 5556 5552 5549
5577 5577 5578 5579 5580 5582 5584 5586 5588 5590 5592 5593 5595 5597 5599 5600 5602 5603 5603 5601 5600 5599 5596 5591 5584 5581 5578 5577 5575 5574 5573 5572 5569 5567 5564 5561 5559 5556 5553 5550 5547 5544 5541
5567 5567 5568 5569 5569 5570 5572 5575 5577 5579 5580 5582 5584 5585 5587 5588 5590 5591 5591 5590 5588 5587 5584 5580 5576 5572 5570 5569 5568 5566 5564 5563 5562 5560 5557 5554 5551 5548 5546 5543 5539 5536 5533
5557 5557 5558 5558 5559 5559 5559 5562 5565 5568 5569 5570 5572 5574 5575 5576 5578 5580 5580 5579 5578 5576 5574 5571 5568 5565 5562 5561 5559 5559 5557 5555 5554 5553 5550 5548 5545 5541 5538 5536 5533 5530 5528
5548 5547 5547 5547 5548 5547 5547 5550 5553 5556 5558 5560 5562 5563 5565 5565 5566 5568 5568 5568 5568 5567 5564 5563 5561 5558 5555 5554 5553 5553 5550 5547 5544 5545 5543 5541 5540 5537 5534 5531 5529 5526 5523
5539 5538 5537 5537 5537 5536 5538 5540 5544 5547 5548 5550 5552 5554 5556 5555 5556 5557 5557 5557 5557 5557 5557 5556 5553 5550 5549 5547 5546 5544 5542 5540 5538 5538 5536 5534 5534 5532 5531 5529 5526 5523 5520
5530 5530 5529 5529 5529 5528 5529 5532 5535 5538 5540 5541 5542 5543 5543 5543 5544 5546 5547 5547 5546 5546 5546 5546 5543 5542 5540 5539 5538 5537 5536 5535 5533 5532 5531 5528 5528 5527 5527 5524 5522 5520 5517
5524 5524 5523 5523 5523 5522 5523 5526 5529 5532 5532 5532 5533 5533 5534 5534 5534 5537 5538 5537 5536 5535 5535 5535 5534 5533 5532 5532 5530 5530 5528 5526 5524 5525 5526 5524 5523 5523 5522 5521 5519 5517 5515
5520 5520 5519 5518 5518 5517 5518 5520 5524 5527 5527 5527 5525 5525 5524 5525 5526 5528 5529 5529 5527 5526 5527 5527 5526 5526 5526 5526 5524 5523 5522 5520 5519 5518 5520 5519 5519 5518 5516 5518 5517 5515 5513